Vorticity
9 9 7 5 5 5 6 6 6 6 5 4 3 3 5 5 6 5 5 5 4 5 5 4 2 1 4 4 3 4 4 5 4 3 4 4 4 4 3 3 3 4 5 4 6 11 12 8 3 3 4 2 2 1 4 7 0 1 4 4 6 6 7 6 6 5 3 5 4 6 4 5 6 1 6 8 4 5 5 4 4 6 6 7 7 8 7 5
7 8 10 9 6 5 4 4 6 6 6 6 4 3 3 4 6 6 7 6 6 5 5 6 4 2 2 5 5 4 6 5 3 4 2 3 3 3 4 2 3 4 3 5 8 9 9 8 4 4 5 7 10 2 2 11 4 -0 2 3 6 6 6 7 5 5 7 6 6 10 5 5 6 4 9 8 3 6 6 3 4 7 5 6 6 7 9 6
6 5 7 9 9 9 7 5 4 4 5 5 5 5 3 4 4 5 7 6 7 6 5 5 6 5 1 4 6 4 5 4 4 3 2 3 1 2 3 2 3 0 1 6 7 6 7 8 8 7 7 10 13 6 2 9 8 4 2 2 6 8 6 6 6 6 6 4 5 8 4 6 7 5 7 6 7 4 3 6 6 7 4 4 5 4 6 5
9 7 5 5 7 9 10 9 8 6 5 4 4 4 4 4 3 3 5 6 7 7 7 5 5 7 3 3 3 2 3 1 3 1 3 4 1 2 1 2 0 -1 2 2 8 11 7 9 10 6 6 8 7 7 10 14 12 8 7 7 8 6 5 6 5 5 5 4 7 7 6 10 6 5 6 5 9 6 2 7 4 4 3 2 3 2 3 4
7 9 8 6 4 4 7 9 10 10 9 7 5 4 4 4 3 3 3 5 6 6 9 6 5 5 5 5 -0 1 1 1 6 1 2 3 2 3 1 2 -1 1 4 2 8 9 7 6 4 5 7 4 -1 2 5 6 6 3 7 9 7 5 4 6 5 7 8 5 9 9 6 10 8 6 7 2 4 7 3 4 4 3 3 3 3 2 2 3
4 6 9 9 7 5 4 4 7 9 10 11 10 8 6 4 4 3 3 4 5 6 8 7 7 5 5 7 2 4 -4 -3 11 5 2 5 2 1 0 2 1 4 6 4 4 4 8 -3 -11 -2 4 3 1 5 6 5 5 1 6 6 4 5 2 5 4 3 5 4 7 7 7 8 6 6 8 4 2 6 5 5 5 2 1 2 2 3 2 3
4 4 5 8 9 8 6 4 4 4 7 9 11 12 10 9 6 5 4 4 5 5 7 6 9 7 5 7 5 8 -6 -7 13 7 4 8 3 2 2 2 2 5 4 5 6 4 5 -0 1 1 -3 1 -0 4 5 7 12 5 6 4 1 4 1 4 4 3 4 3 5 4 6 6 6 10 8 4 2 4 4 5 8 6 4 2 1 3 2 4
4 5 4 5 6 8 9 7 5 3 4 5 7 10 11 12 10 10 8 6 6 5 6 6 8 8 8 7 5 11 -1 -4 10 5 6 8 2 2 3 4 5 5 3 6 7 2 2 6 15 10 3 2 0 9 -1 -0 17 8 4 2 -1 2 2 5 0 5 8 1 6 4 2 7 8 8 5 5 3 4 6 6 10 11 9 5 4 2 2 5
2 4 4 5 4 5 7 8 8 5 4 3 4 5 6 9 11 13 11 9 7 5 7 6 7 8 9 8 5 10 4 3 10 2 6 6 -0 1 1 4 4 4 4 4 5 4 7 7 7 7 5 5 6 11 -1 2 14 3 4 6 1 1 2 9 3 2 7 4 9 8 6 9 9 6 5 9 6 8 12 7 7 8 8 6 7 5 3 5
2 2 3 5 5 4 5 6 9 8 7 4 3 3 3 5 7 11 12 12 10 7 8 6 7 7 8 10 7 8 1 6 14 4 5 6 2 1 -0 4 2 5 5 2 5 4 7 4 4 3 -4 2 2 3 7 12 11 2 5 0 -1 5 0 6 10 5 7 9 6 8 13 7 9 12 3 4 5 8 10 5 7 8 8 7 7 7 3 6
5 4 3 4 4 5 4 4 6 8 10 8 5 3 2 3 3 6 9 11 11 10 9 8 8 6 9 10 9 14 5 4 14 7 5 4 3 3 2 4 2 6 5 3 5 4 7 3 5 4 0 9 -4 -3 10 2 3 1 3 9 4 5 -0 -6 6 9 5 9 4 7 15 4 9 13 2 8 9 6 7 6 12 9 8 9 9 10 5 8
7 6 5 4 3 4 5 5 5 4 7 9 9 7 4 3 2 3 4 7 9 10 11 9 8 7 9 8 11 23 14 4 9 9 10 6 4 4 4 3 1 7 5 3 4 5 9 3 6 4 6 14 -6 3 15 0 8 1 4 22 0 -12 -8 -10 3 6 -0 7 8 6 12 7 9 8 3 14 12 7 8 5 9 8 9 11 10 11 10 11
8 8 7 7 5 4 4 5 5 4 5 6 9 9 8 5 3 3 2 4 5 6 9 8 8 8 8 8 12 19 12 5 6 8 11 10 8 5 5 3 1 6 6 5 3 5 9 4 7 2 4 9 -2 15 19 3 8 6 10 5 -5 10 6 1 6 0 2 7 7 9 12 7 5 8 9 10 6 9 8 3 8 9 10 12 9 13 13 12
9 8 8 8 7 6 5 4 5 5 5 4 6 7 9 9 6 5 2 2 3 3 5 6 7 8 7 9 9 9 10 9 5 5 7 7 10 9 8 6 3 4 6 8 4 6 8 6 9 5 7 5 -1 11 7 0 -0 1 8 -17 -10 21 6 4 -2 -7 14 8 3 12 10 7 6 9 10 5 1 2 2 3 8 8 7 5 6 15 15 13
9 9 8 8 8 8 7 6 4 5 5 5 5 5 6 9 9 8 6 4 3 2 3 2 3 5 4 4 5 5 8 9 4 5 6 4 7 9 9 8 7 5 4 6 6 7 6 6 7 4 8 3 2 4 -10 1 1 -9 6 -1 -4 -1 4 19 -9 -5 22 2 4 11 2 7 11 12 7 3 4 -0 1 6 10 8 7 6 6 13 14 16
9 9 9 8 7 8 8 7 6 5 5 5 6 5 5 6 7 9 9 7 5 4 3 2 2 3 1 1 9 8 3 8 8 5 6 4 5 6 8 8 7 6 5 5 5 6 5 6 6 3 9 6 3 -2 -14 -2 3 -3 8 13 8 -9 7 23 -9 3 16 -6 5 6 2 8 6 18 12 2 4 -0 1 7 15 13 6 8 7 6 6 10
8 9 9 9 8 7 7 7 8 6 5 5 5 6 6 5 5 6 8 9 8 7 4 4 2 3 1 -4 2 7 4 6 6 4 4 4 4 2 3 5 6 6 6 6 6 5 5 5 5 5 4 -0 -4 -4 3 8 2 7 5 2 13 0 3 9 -8 7 11 6 13 -5 1 7 -5 11 15 7 6 5 7 5 12 15 7 4 1 3 3 2
9 8 8 10 9 8 8 7 8 8 7 6 4 5 5 6 6 5 6 6 8 9 7 7 5 4 4 -2 -4 2 4 3 2 3 3 1 2 1 1 3 5 6 5 5 6 5 5 4 4 6 3 3 -2 -12 1 9 -5 0 -1 -5 9 4 2 -1 -5 20 19 13 17 -2 -3 6 4 8 10 10 3 4 11 6 10 15 14 8 -2 -1 2 -0
9 9 8 8 9 9 9 7 7 7 7 7 6 5 4 5 6 5 5 5 6 7 6 8 8 2 3 6 3 2 3 2 2 2 2 1 1 2 3 4 5 7 7 6 7 6 6 7 2 1 5 4 0 -6 0 10 11 11 2 -1 5 -2 1 -0 4 24 9 -6 12 7 -5 1 5 0 3 2 -11 -5 7 7 8 5 10 15 1 -7 -4 2
7 8 8 7 8 9 9 9 9 8 7 7 7 7 5 5 5 5 6 6 5 5 5 7 8 5 3 7 10 9 7 4 4 3 3 3 3 4 4 5 7 8 8 6 10 11 4 7 4 0 6 -2 -3 6 -7 -14 7 11 -4 1 11 3 3 6 4 6 2 6 13 6 1 5 3 -3 4 3 -8 3 15 13 8 -0 4 13 9 3 1 4
6 6 7 7 6 7 8 9 9 9 9 8 8 7 7 6 5 5 5 6 5 5 5 4 5 5 3 4 6 10 12 9 8 7 7 7 5 6 5 5 8 7 7 5 8 12 6 6 5 -0 5 -4 -6 7 -6 -11 8 4 -7 3 9 4 3 3 3 7 13 5 -7 -0 7 5 10 5 2 10 12 16 23 22 10 5 6 3 7 15 9 4
7 6 7 7 6 6 6 7 7 9 9 9 9 8 8 8 6 6 5 5 6 5 6 5 5 5 3 3 2 4 9 10 10 8 9 10 8 8 8 8 9 6 7 8 7 9 8 10 10 7 8 -1 -1 10 9 11 16 9 8 7 -0 2 5 3 6 9 1 -9 -0 18 6 -7 13 15 5 16 15 0 5 16 8 6 12 3 -1 12 14 4
10 9 7 7 7 6 6 6 6 6 7 8 9 9 9 9 8 8 6 5 6 5 5 5 5 5 5 5 5 5 5 5 7 8 8 9 7 8 8 8 9 7 9 10 8 7 5 5 7 10 9 2 2 5 2 1 7 15 15 7 2 2 3 4 4 -5 -14 -3 19 16 -4 -3 8 8 8 8 -2 -9 0 16 12 -0 4 4 -4 5 18 10
10 10 10 10 8 8 7 6 5 6 6 6 7 8 9 9 9 10 9 7 7 6 6 6 6 6 6 5 5 6 7 6 4 6 7 7 8 6 4 6 7 8 9 8 9 9 6 3 -2 -3 1 2 -1 -2 2 5 9 12 6 5 10 5 0 -0 2 9 3 1 8 -2 -2 10 3 3 13 -2 -10 -1 5 18 20 1 -1 7 2 -1 10 13
8 8 9 9 9 9 9 8 8 7 5 6 6 6 6 8 8 9 10 11 11 10 8 7 5 5 6 5 4 4 6 6 5 8 8 4 8 8 4 6 5 5 6 6 10 9 6 8 6 0 2 6 5 5 9 11 10 6 3 8 8 8 11 -3 -6 18 17 4 8 7 7 9 1 10 15 -6 -6 6 5 16 23 9 0 1 0 -1 7 13
9 8 8 8 8 8 8 9 10 8 8 8 7 7 7 6 7 7 8 9 10 11 14 13 9 7 6 4 7 5 3 5 3 6 8 5 8 9 6 7 6 5 6 4 7 8 6 7 7 5 5 7 9 10 8 9 12 8 7 6 -0 8 15 1 -1 10 2 -4 6 8 9 9 4 9 6 -7 4 12 6 13 16 12 7 -1 -1 3 10 9
12 11 10 9 8 8 8 7 8 8 10 11 10 10 9 8 8 7 8 8 6 7 9 9 9 9 9 9 8 4 4 6 2 1 5 5 7 7 6 7 6 6 7 6 6 7 4 4 7 6 7 8 7 8 7 6 6 4 6 4 -2 6 9 4 12 13 1 -1 4 6 7 5 2 7 4 1 14 11 2 8 6 11 24 15 3 6 13 10
13 14 14 13 10 9 9 8 8 7 7 8 9 9 9 10 9 9 10 9 10 14 13 8 7 7 9 11 10 8 7 5 4 9 8 1 3 6 5 6 7 5 5 5 5 7 7 9 14 10 4 7 8 10 10 4 2 4 9 7 2 6 5 3 10 14 12 5 -0 8 11 4 4 7 5 11 23 15 9 17 4 3 23 17 3 12 25 17
8 11 12 14 14 13 11 10 9 8 8 7 6 7 8 8 8 10 9 4 3 8 12 14 13 7 5 6 8 10 12 8 7 12 10 2 3 6 4 5 4 2 5 7 4 8 10 5 9 13 10 10 10 9 6 3 6 6 3 3 7 11 8 8 9 8 11 2 -1 12 13 9 8 6 5 10 16 9 6 14 3 -4 7 4 0 13 23 12
5 6 7 9 12 13 14 13 12 11 11 8 7 8 6 7 8 7 8 7 4 -0 1 6 9 12 11 8 9 8 8 12 9 6 5 3 3 5 4 5 6 4 4 5 4 9 8 -6 -8 3 6 9 10 8 5 6 10 10 8 7 9 12 9 8 8 6 7 5 12 21 16 13 9 7 14 12 6 4 2 4 0 3 10 8 9 13 18 13
6 6 6 6 6 9 10 12 15 14 11 10 9 9 7 8 7 5 6 8 9 4 3 4 4 10 13 9 13 14 8 9 9 8 9 8 7 7 5 4 6 6 4 5 4 6 6 -2 -1 6 5 3 5 5 3 4 6 6 7 8 6 6 8 10 10 9 8 7 17 23 17 15 7 8 19 13 9 17 16 9 8 18 22 15 17 16 12 10
10 8 8 8 7 8 6 7 10 11 13 13 11 10 10 8 7 8 6 4 8 6 10 22 21 15 17 14 16 17 11 9 10 10 10 11 11 9 9 9 7 5 5 8 8 7 7 3 5 12 12 8 3 3 6 4 7 7 4 7 9 8 11 13 12 10 8 8 11 13 13 13 9 17 26 18 18 21 7 -4 -4 2 11 15 25 26 13 10
11 10 10 10 10 10 8 7 6 7 11 13 14 13 10 8 9 12 8 6 14 17 18 28 26 17 15 16 16 16 16 17 16 15 11 11 12 9 10 10 8 10 9 10 11 12 14 9 10 15 16 19 13 5 9 10 12 16 13 14 16 13 11 7 9 10 8 9 8 16 29 19 1 4 12 12 15 15 3 -10 -24 -20 10 31 30 21 14 16
9 10 10 9 10 11 11 10 8 7 6 7 13 14 11 12 11 13 15 8 4 10 15 7 2 11 19 22 21 12 16 21 17 17 15 11 11 10 13 13 10 11 11 12 9 4 5 2 12 22 13 21 29 16 12 13 10 9 6 8 12 14 13 4 3 2 -2 1 -5 -1 13 4 -3 9 19 22 13 4 2 -11 -22 -4 28 41 27 12 9 12
8 9 9 8 8 9 10 11 11 10 7 5 6 8 11 17 14 12 18 15 -4 -9 3 -3 -12 -2 5 12 13 -1 9 20 8 13 22 17 16 13 14 19 17 12 12 14 12 12 15 2 3 14 -5 -7 12 7 1 4 8 12 6 1 2 6 11 10 10 9 8 11 2 -3 2 3 18 28 20 18 6 -1 4 -6 5 30 28 22 17 8 6 6
7 7 8 8 8 9 9 10 11 11 12 9 5 5 7 13 18 16 14 21 15 0 6 12 4 2 1 7 11 0 13 21 0 7 21 14 18 20 15 16 14 13 14 13 6 4 13 10 8 19 10 3 6 -2 -2 6 14 21 14 7 7 5 11 14 12 12 13 16 14 14 15 12 17 6 -15 -13 -8 7 22 13 22 34 13 5 6 -2 1 4
7 6 7 7 8 9 9 10 10 10 12 12 10 9 6 6 14 15 1 2 12 3 6 17 17 22 22 18 17 2 8 24 6 1 15 12 17 22 16 14 10 7 11 18 14 -1 2 9 3 7 16 17 13 7 12 23 28 25 12 9 13 9 10 11 11 16 15 13 13 9 8 10 16 13 4 9 16 20 20 11 14 16 4 4 3 -3 1 1
5 5 6 6 6 7 8 9 9 9 10 11 14 13 9 7 8 9 -2 -6 6 -3 -11 3 9 17 21 15 19 5 -6 20 24 13 19 15 13 18 17 18 15 6 8 16 19 11 6 1 -10 -1 10 3 1 16 26 26 26 27 13 -1 -2 5 8 3 8 23 21 15 16 11 6 3 5 7 -1 1 13 6 -4 6 16 11 4 3 1 3 5 2
3 4 8 7 6 6 4 6 6 7 8 8 15 16 13 12 6 7 3 -0 15 6 -12 0 -2 5 29 21 17 16 -7 -0 17 19 22 10 6 21 20 18 18 10 8 9 9 14 11 -1 -7 2 12 9 9 22 35 32 20 26 28 8 -5 4 7 -4 -3 5 2 3 14 16 15 12 8 3 -13 -20 -10 -13 -10 15 16 3 6 7 3 5 6 7
3 6 11 9 9 8 5 5 3 4 8 6 11 13 12 15 8 7 4 -2 15 15 6 17 -7 -10 32 17 -4 17 12 10 21 12 10 8 5 8 -2 3 19 12 7 15 17 16 14 14 16 4 -6 -3 -1 5 32 43 16 3 16 18 13 13 5 -1 5 3 -8 -2 11 10 10 10 2 -5 -7 -1 8 5 9 20 8 0 9 7 4 8 6 6
6 8 14 12 10 10 7 8 5 3 7 6 8 10 9 14 10 7 6 -1 12 15 12 23 -6 -23 9 -3 -15 9 2 15 38 9 -8 0 4 11 5 13 31 15 5 24 27 19 15 9 12 13 -4 -15 0 22 32 27 8 -7 -0 17 27 26 14 3 6 13 10 8 6 -1 -1 2 0 4 13 16 12 9 12 11 5 9 11 3 7 11 7 6
8 8 14 16 14 13 9 9 8 5 7 6 9 10 7 11 10 8 10 5 9 10 5 18 11 -3 3 -12 -13 2 -13 3 30 6 1 8 -2 10 14 5 12 -0 -5 20 24 19 22 7 -1 11 4 -13 8 28 1 -11 14 15 1 9 18 22 21 5 -3 7 12 10 6 4 4 3 4 9 9 5 3 10 21 16 6 8 5 -1 2 5 5 7
8 6 12 16 15 16 12 11 9 6 9 8 7 8 5 9 10 7 12 13 14 11 2 11 20 12 5 -11 -18 -8 -7 5 4 -18 4 20 -4 4 11 -9 -6 -4 -8 12 21 15 16 16 12 10 2 -4 3 6 -12 -5 27 19 -6 -1 7 9 15 9 7 6 -4 -5 2 6 11 7 3 5 3 9 14 10 13 15 8 6 1 -2 -0 0 3 6
9 4 7 10 11 14 12 12 12 6 8 7 4 7 5 7 10 6 9 14 17 16 6 8 15 6 2 1 -7 -6 -3 4 -2 -16 1 9 -9 4 18 5 13 25 15 10 18 21 16 19 27 14 -2 2 4 6 7 9 26 33 21 11 4 8 12 4 7 7 -3 5 7 -5 1 7 4 5 6 13 14 2 3 14 13 7 -0 -3 -1 -2 1 4
10 7 6 5 6 11 11 11 12 7 7 6 3 6 4 4 7 4 8 14 13 14 9 6 11 7 6 6 -0 2 2 -2 4 6 6 1 -10 -4 8 14 26 29 15 -3 -5 12 15 9 24 24 3 -2 1 6 7 -1 6 20 17 8 2 12 20 6 0 3 1 16 23 5 2 4 -1 1 5 10 16 15 16 12 1 -1 0 2 4 3 4 7
3 4 7 8 6 8 9 10 11 8 8 9 6 6 4 5 8 4 4 10 9 10 10 9 9 6 8 8 3 6 6 2 10 13 2 -5 -3 3 10 31 43 18 -6 -10 -12 4 13 1 12 26 8 -4 5 17 17 5 1 -0 9 26 18 6 18 19 14 13 -1 -2 12 9 1 -0 1 6 8 6 8 9 9 1 -7 -2 6 9 11 12 12 11
5 0 1 5 6 6 6 8 10 8 8 9 8 8 6 4 9 8 3 4 5 7 10 13 14 8 6 9 7 7 8 8 14 16 4 -14 -18 -7 -4 11 38 28 5 4 -3 -2 11 8 12 19 1 -10 2 15 16 9 6 3 9 22 8 -8 14 27 15 10 1 -5 3 4 0 5 7 5 5 7 8 9 9 7 5 8 12 14 13 15 16 13
14 10 3 1 1 4 6 7 9 8 9 9 6 8 8 5 6 8 8 5 2 3 6 8 13 14 10 7 5 5 9 13 11 12 14 -4 -19 -8 -7 -15 8 25 17 11 4 3 11 12 9 6 -2 -1 -2 -6 0 9 13 6 -7 3 13 3 8 19 14 12 14 9 4 4 6 10 8 6 11 15 13 11 11 11 11 10 12 14 11 11 12 11
9 12 11 7 2 2 4 4 5 5 7 10 8 6 7 7 6 6 10 12 5 2 4 5 9 13 12 9 7 5 10 16 13 7 13 14 -0 -1 1 -6 3 27 28 13 7 11 12 11 11 4 3 14 8 -7 -1 8 11 4 -8 6 25 9 -5 6 7 4 10 8 3 8 11 10 13 16 14 12 10 9 12 13 12 9 7 10 11 11 14 15
6 7 8 8 7 6 6 3 2 2 4 8 9 9 8 7 7 5 7 13 10 5 4 4 9 14 12 9 8 8 11 14 13 5 5 19 18 5 2 -5 -7 23 43 23 11 15 7 9 21 10 -0 9 10 5 8 6 4 5 -1 2 9 4 8 16 2 -6 5 5 -5 -3 -0 0 9 12 6 5 9 11 12 13 15 17 16 16 19 18 15 15
12 10 7 5 6 7 7 6 4 2 4 5 4 6 8 7 8 6 6 10 10 8 5 3 9 14 14 11 7 8 11 7 8 5 -7 0 11 8 11 -2 -25 -1 28 10 5 21 13 10 15 1 -3 11 13 11 10 4 7 11 5 1 3 7 17 19 6 1 11 12 5 12 22 21 16 12 8 8 10 11 13 14 16 24 28 26 26 23 16 12
15 15 14 12 11 10 7 7 7 4 6 7 5 5 5 5 8 8 7 9 9 8 6 3 8 13 12 12 8 8 10 6 10 11 -7 -10 -1 -4 7 9 -14 -5 13 -5 -7 13 12 9 6 -1 9 18 16 20 15 3 8 10 5 10 11 7 16 25 22 14 12 14 12 14 22 22 17 17 16 13 12 11 13 14 14 22 33 27 16 13 12 9
Height
5923 5924 5925 5926 5927 5927 5928 5929 5929 5930 5930 5930 5930 5931 5931 5932 5933 5934 5935 5936 5936 5937 5938 5938 5938 5939 5939 5939 5939 5939 5939 5939 5939 5939 5939 5939 5938 5936 5935 5935 5936 5938 5938 5937 5937 5939 5938 5937 5936 5934 5932 5931 5933 5929 5930 5935 5935 5935 5935 5936 5936 5935 5935 5934 5933 5932 5931 5931 5930 5929 5928 5928 5927 5926 5926 5925 5924 5924 5924 5923 5922 5923 5923 5923 5923 5922 5922 5922
5923 5924 5924 5925 5926 5927 5927 5928 5929 5929 5930 5930 5930 5930 5931 5932 5933 5934 5934 5935 5936 5937 5938 5938 5939 5939 5939 5940 5940 5940 5940 5940 5940 5940 5940 5940 5939 5938 5936 5936 5938 5939 5939 5938 5938 5940 5941 5939 5937 5936 5934 5934 5934 5931 5934 5938 5936 5937 5938 5938 5938 5937 5937 5935 5934 5933 5933 5933 5931 5931 5930 5929 5929 5928 5927 5926 5925 5925 5925 5924 5923 5923 5923 5923 5923 5923 5923 5922
5922 5923 5924 5925 5925 5926 5927 5928 5928 5929 5930 5930 5930 5931 5931 5931 5932 5933 5934 5935 5936 5937 5938 5938 5939 5939 5940 5940 5940 5941 5941 5941 5941 5941 5941 5941 5940 5938 5937 5937 5939 5941 5941 5940 5940 5941 5942 5939 5937 5937 5936 5936 5935 5932 5936 5939 5939 5940 5939 5940 5939 5938 5938 5937 5936 5935 5934 5934 5932 5932 5932 5931 5930 5929 5928 5927 5926 5926 5925 5925 5924 5924 5924 5924 5923 5923 5923 5923
5921 5922 5923 5924 5925 5925 5926 5927 5927 5928 5929 5930 5930 5931 5931 5931 5932 5932 5933 5934 5935 5936 5937 5938 5939 5940 5940 5940 5941 5941 5941 5941 5942 5942 5942 5942 5940 5939 5938 5938 5941 5944 5942 5940 5942 5943 5942 5940 5938 5938 5938 5938 5937 5936 5938 5941 5941 5941 5941 5941 5940 5939 5939 5937 5937 5936 5935 5934 5933 5933 5933 5932 5931 5930 5929 5928 5927 5926 5926 5926 5926 5925 5924 5924 5924 5924 5923 5923
5920 5921 5922 5923 5924 5925 5925 5926 5927 5927 5928 5929 5930 5931 5931 5932 5932 5932 5933 5933 5934 5935 5937 5938 5939 5939 5940 5940 5940 5941 5941 5941 5941 5942 5942 5942 5942 5940 5939 5939 5942 5945 5944 5941 5943 5944 5942 5942 5940 5939 5940 5939 5939 5940 5942 5943 5943 5943 5942 5942 5941 5940 5939 5937 5937 5936 5936 5935 5934 5934 5933 5933 5932 5931 5930 5929 5928 5927 5927 5927 5927 5926 5926 5925 5924 5924 5923 5923
5920 5920 5921 5922 5923 5924 5924 5925 5926 5927 5928 5928 5929 5930 5931 5931 5932 5932 5932 5933 5934 5935 5936 5937 5938 5939 5940 5940 5940 5941 5942 5942 5942 5942 5942 5942 5942 5942 5941 5940 5942 5946 5945 5942 5943 5944 5943 5943 5942 5941 5942 5941 5942 5943 5945 5945 5945 5944 5943 5943 5942 5940 5939 5938 5938 5937 5937 5936 5936 5936 5935 5934 5933 5932 5931 5930 5929 5929 5929 5929 5929 5928 5927 5926 5925 5924 5923 5923
5919 5920 5920 5921 5922 5922 5923 5924 5925 5926 5927 5928 5929 5929 5930 5931 5931 5932 5932 5932 5933 5934 5935 5936 5937 5938 5939 5939 5940 5941 5941 5942 5942 5942 5942 5942 5943 5943 5942 5942 5943 5946 5946 5945 5944 5944 5944 5943 5942 5942 5943 5944 5944 5945 5946 5946 5945 5945 5944 5944 5943 5942 5941 5941 5940 5940 5939 5939 5938 5938 5937 5936 5934 5933 5932 5931 5931 5930 5930 5931 5931 5930 5929 5927 5926 5925 5923 5923
5918 5919 5920 5920 5921 5922 5922 5923 5925 5926 5927 5927 5928 5929 5929 5930 5930 5931 5932 5932 5932 5933 5934 5935 5936 5938 5939 5939 5940 5940 5941 5941 5941 5942 5942 5943 5943 5943 5943 5942 5943 5945 5946 5947 5946 5945 5945 5944 5943 5943 5944 5945 5946 5946 5947 5947 5946 5946 5945 5944 5943 5943 5943 5943 5942 5942 5941 5940 5941 5940 5938 5937 5936 5934 5933 5932 5933 5932 5931 5932 5932 5931 5930 5928 5927 5926 5924 5923
5917 5918 5919 5919 5920 5921 5922 5923 5924 5925 5926 5927 5927 5928 5929 5929 5930 5931 5931 5932 5932 5933 5934 5935 5936 5937 5938 5939 5939 5939 5940 5941 5941 5941 5942 5943 5943 5943 5943 5943 5943 5944 5945 5947 5947 5946 5946 5945 5944 5944 5944 5945 5947 5948 5948 5948 5948 5947 5945 5944 5944 5943 5943 5943 5942 5942 5942 5942 5942 5941 5939 5938 5937 5936 5934 5934 5934 5934 5933 5933 5933 5932 5931 5930 5928 5927 5926 5924
5916 5917 5918 5918 5919 5920 5921 5922 5923 5924 5925 5926 5927 5927 5928 5929 5930 5930 5931 5931 5932 5933 5933 5934 5935 5936 5937 5938 5938 5939 5939 5940 5941 5942 5942 5943 5943 5943 5944 5944 5944 5944 5945 5945 5946 5946 5946 5946 5945 5945 5944 5945 5948 5949 5949 5950 5949 5948 5946 5945 5944 5943 5943 5944 5942 5941 5943 5944 5943 5942 5940 5939 5938 5937 5935 5934 5934 5934 5934 5934 5933 5933 5931 5930 5930 5928 5926 5925
5914 5915 5916 5917 5918 5919 5920 5921 5922 5923 5924 5925 5926 5927 5928 5928 5929 5930 5931 5931 5932 5932 5933 5934 5934 5935 5936 5937 5938 5938 5939 5940 5941 5941 5942 5943 5943 5943 5944 5944 5944 5945 5945 5946 5946 5946 5946 5946 5946 5946 5945 5946 5947 5949 5950 5950 5949 5949 5947 5944 5944 5944 5944 5944 5942 5940 5942 5944 5943 5943 5941 5939 5938 5938 5937 5935 5933 5932 5934 5936 5934 5933 5932 5930 5930 5928 5927 5926
5912 5913 5915 5916 5917 5918 5919 5920 5921 5922 5923 5924 5925 5926 5927 5928 5929 5929 5930 5931 5931 5932 5933 5933 5934 5934 5935 5937 5938 5938 5939 5940 5941 5942 5942 5943 5943 5944 5944 5944 5945 5945 5946 5946 5946 5946 5946 5947 5947 5947 5947 5947 5948 5949 5950 5950 5950 5949 5947 5945 5946 5945 5945 5944 5942 5941 5942 5942 5942 5942 5941 5940 5939 5938 5937 5936 5933 5932 5933 5935 5934 5933 5931 5931 5930 5929 5927 5926
5910 5912 5913 5914 5916 5917 5918 5919 5920 5921 5922 5923 5924 5925 5926 5927 5928 5929 5930 5930 5931 5932 5932 5933 5933 5934 5935 5936 5937 5937 5938 5939 5941 5941 5942 5943 5943 5944 5944 5944 5945 5945 5946 5946 5947 5947 5947 5947 5947 5947 5948 5948 5948 5948 5949 5950 5950 5950 5947 5947 5948 5946 5945 5943 5942 5942 5942 5941 5942 5943 5941 5940 5940 5938 5937 5935 5934 5933 5932 5933 5933 5932 5931 5931 5930 5929 5927 5926
5908 5910 5911 5912 5914 5915 5917 5918 5919 5920 5921 5922 5923 5924 5925 5926 5927 5928 5929 5930 5931 5931 5932 5933 5933 5934 5935 5936 5937 5937 5938 5938 5940 5941 5942 5942 5943 5944 5944 5945 5945 5945 5946 5946 5947 5947 5947 5947 5947 5948 5948 5947 5948 5948 5950 5950 5950 5950 5947 5947 5947 5946 5946 5944 5943 5943 5942 5940 5941 5942 5941 5939 5939 5938 5936 5935 5934 5933 5932 5932 5931 5931 5931 5930 5930 5928 5926 5925
5906 5908 5909 5910 5912 5913 5915 5916 5918 5919 5920 5921 5922 5923 5924 5925 5926 5927 5928 5929 5930 5931 5931 5932 5933 5934 5934 5936 5936 5937 5937 5938 5939 5940 5941 5942 5942 5943 5944 5944 5945 5945 5946 5946 5946 5947 5947 5947 5947 5948 5948 5948 5948 5948 5950 5950 5951 5951 5948 5947 5946 5946 5947 5946 5945 5943 5940 5941 5941 5940 5939 5938 5939 5938 5936 5935 5935 5933 5932 5932 5931 5931 5932 5931 5929 5927 5926 5925
5904 5906 5907 5909 5910 5911 5913 5915 5916 5917 5919 5920 5920 5921 5923 5923 5924 5925 5926 5928 5929 5930 5931 5931 5932 5933 5934 5936 5937 5936 5937 5938 5938 5939 5940 5941 5942 5943 5943 5944 5945 5945 5945 5945 5946 5946 5947 5947 5947 5947 5948 5948 5948 5948 5951 5952 5951 5951 5950 5949 5946 5945 5946 5946 5944 5940 5937 5939 5941 5939 5938 5936 5936 5937 5937 5935 5934 5934 5932 5932 5932 5932 5931 5931 5929 5927 5926 5925
5902 5904 5905 5907 5908 5909 5911 5913 5914 5915 5917 5918 5919 5920 5921 5922 5923 5924 5925 5926 5927 5928 5930 5930 5931 5933 5933 5935 5936 5935 5935 5936 5938 5939 5939 5940 5941 5942 5943 5943 5944 5945 5945 5945 5946 5946 5946 5947 5947 5947 5947 5947 5948 5949 5951 5953 5952 5950 5950 5949 5946 5944 5945 5945 5942 5941 5939 5939 5941 5941 5939 5937 5935 5936 5937 5936 5934 5934 5932 5931 5931 5932 5931 5930 5929 5927 5925 5925
5901 5902 5903 5905 5906 5907 5909 5911 5912 5913 5915 5916 5917 5919 5920 5921 5922 5923 5924 5925 5926 5927 5928 5929 5930 5931 5931 5932 5933 5933 5934 5936 5937 5938 5938 5939 5940 5941 5942 5943 5943 5944 5945 5945 5945 5945 5945 5946 5946 5947 5947 5947 5949 5951 5953 5955 5953 5951 5950 5949 5947 5944 5944 5944 5944 5945 5945 5942 5941 5940 5939 5938 5936 5934 5935 5936 5935 5934 5933 5930 5929 5930 5930 5930 5929 5928 5925 5924
5899 5900 5902 5903 5904 5906 5907 5909 5910 5911 5913 5914 5916 5917 5918 5919 5920 5921 5922 5924 5925 5925 5926 5928 5929 5929 5929 5931 5932 5933 5934 5935 5936 5936 5937 5938 5939 5940 5941 5941 5942 5943 5944 5944 5945 5945 5945 5946 5946 5947 5947 5948 5949 5952 5956 5957 5955 5955 5954 5951 5950 5949 5947 5945 5945 5946 5946 5944 5942 5941 5938 5938 5937 5933 5933 5935 5936 5934 5932 5930 5929 5928 5928 5930 5930 5928 5925 5924
5897 5899 5900 5901 5902 5904 5905 5907 5908 5909 5911 5912 5914 5915 5917 5918 5918 5920 5921 5922 5923 5924 5925 5927 5927 5928 5929 5930 5930 5932 5933 5933 5934 5935 5936 5937 5938 5939 5939 5940 5941 5942 5943 5944 5944 5944 5944 5945 5946 5946 5946 5948 5949 5952 5955 5956 5956 5957 5955 5952 5952 5952 5952 5950 5946 5945 5944 5944 5944 5943 5942 5941 5939 5935 5932 5932 5934 5932 5930 5929 5929 5928 5927 5930 5931 5927 5925 5924
5895 5897 5898 5899 5901 5902 5903 5905 5906 5907 5909 5910 5911 5913 5915 5916 5917 5918 5920 5921 5921 5923 5924 5924 5925 5926 5927 5927 5929 5931 5931 5932 5933 5933 5935 5936 5936 5937 5938 5939 5939 5941 5942 5942 5942 5942 5942 5943 5945 5946 5946 5947 5948 5950 5951 5952 5954 5955 5952 5951 5951 5952 5953 5953 5949 5947 5946 5946 5945 5943 5943 5942 5941 5937 5932 5932 5932 5931 5931 5928 5926 5925 5925 5928 5930 5927 5925 5924
5893 5894 5896 5897 5899 5900 5902 5903 5904 5905 5907 5908 5909 5911 5912 5913 5914 5916 5918 5919 5920 5921 5922 5923 5924 5925 5925 5927 5929 5929 5930 5931 5931 5932 5933 5934 5935 5936 5936 5937 5938 5939 5940 5941 5941 5941 5941 5943 5944 5945 5945 5945 5946 5947 5947 5949 5950 5951 5949 5949 5951 5951 5952 5952 5951 5949 5947 5947 5946 5943 5942 5941 5941 5937 5931 5929 5931 5932 5932 5930 5927 5924 5922 5924 5927 5927 5926 5925
5890 5892 5894 5895 5897 5898 5899 5901 5902 5903 5905 5906 5907 5909 5910 5911 5912 5914 5915 5917 5918 5919 5921 5922 5923 5924 5925 5926 5927 5928 5929 5929 5930 5931 5932 5933 5934 5934 5934 5936 5937 5937 5939 5939 5940 5940 5940 5942 5943 5944 5945 5945 5946 5947 5947 5948 5949 5948 5948 5948 5949 5951 5952 5952 5952 5950 5948 5946 5944 5943 5943 5942 5941 5938 5931 5925 5927 5931 5932 5930 5928 5926 5922 5920 5923 5926 5927 5925
5888 5890 5891 5893 5894 5895 5897 5898 5900 5901 5903 5904 5905 5907 5908 5909 5910 5912 5913 5915 5916 5918 5920 5921 5922 5922 5923 5924 5926 5927 5927 5928 5929 5929 5930 5932 5933 5933 5933 5935 5936 5936 5937 5938 5938 5939 5940 5941 5942 5943 5945 5945 5946 5946 5946 5947 5947 5947 5947 5948 5949 5950 5950 5951 5951 5951 5949 5947 5946 5944 5943 5943 5940 5939 5934 5926 5926 5930 5930 5929 5926 5926 5923 5920 5921 5926 5928 5925
5886 5887 5889 5891 5892 5893 5894 5896 5897 5899 5900 5901 5904 5905 5907 5908 5909 5910 5911 5913 5915 5917 5918 5918 5920 5920 5921 5923 5925 5925 5925 5927 5929 5927 5928 5931 5931 5932 5933 5933 5934 5935 5936 5937 5937 5938 5939 5940 5940 5941 5943 5943 5943 5943 5944 5944 5945 5945 5946 5947 5947 5948 5947 5948 5949 5949 5948 5948 5948 5944 5942 5941 5939 5938 5935 5928 5926 5927 5928 5927 5925 5923 5923 5920 5921 5924 5927 5925
5883 5885 5887 5889 5890 5891 5892 5894 5896 5896 5897 5900 5902 5904 5905 5906 5907 5909 5910 5911 5913 5915 5915 5915 5918 5919 5920 5922 5923 5923 5924 5925 5926 5925 5926 5930 5930 5930 5931 5932 5933 5934 5935 5935 5935 5936 5938 5939 5939 5939 5940 5941 5941 5942 5943 5943 5942 5943 5944 5944 5945 5945 5945 5946 5947 5947 5947 5946 5946 5943 5941 5940 5939 5939 5936 5930 5926 5925 5925 5926 5925 5923 5921 5920 5921 5921 5923 5923
5881 5883 5885 5886 5887 5889 5890 5892 5893 5893 5895 5899 5901 5901 5903 5904 5905 5907 5909 5910 5911 5912 5912 5913 5916 5916 5918 5920 5920 5921 5923 5921 5923 5924 5925 5928 5928 5928 5930 5931 5932 5933 5933 5933 5934 5935 5937 5937 5938 5938 5939 5939 5940 5942 5942 5941 5941 5941 5942 5942 5942 5942 5943 5943 5943 5943 5942 5942 5942 5942 5942 5940 5939 5939 5936 5932 5929 5925 5923 5922 5921 5921 5919 5918 5920 5919 5919 5920
5879 5880 5882 5884 5885 5886 5888 5889 5890 5891 5895 5897 5897 5898 5901 5902 5903 5906 5907 5908 5909 5909 5909 5911 5914 5915 5917 5918 5918 5920 5920 5919 5923 5925 5923 5924 5926 5927 5929 5929 5930 5931 5931 5931 5932 5934 5936 5936 5937 5937 5937 5938 5939 5940 5940 5939 5939 5940 5940 5940 5939 5940 5940 5940 5939 5939 5939 5939 5939 5940 5941 5939 5937 5937 5935 5933 5930 5926 5924 5921 5916 5915 5917 5918 5919 5918 5917 5917
5877 5878 5880 5881 5883 5884 5886 5887 5888 5890 5893 5893 5894 5897 5899 5900 5902 5904 5905 5905 5907 5907 5906 5909 5912 5913 5914 5915 5916 5918 5918 5919 5924 5921 5917 5922 5925 5925 5927 5927 5927 5929 5929 5929 5931 5933 5934 5934 5935 5935 5936 5937 5937 5937 5937 5937 5938 5938 5938 5938 5937 5937 5938 5938 5938 5938 5937 5936 5935 5937 5938 5937 5936 5937 5935 5933 5930 5926 5925 5922 5917 5913 5914 5917 5919 5918 5917 5916
5875 5876 5878 5879 5881 5882 5883 5884 5886 5889 5890 5890 5893 5895 5896 5898 5900 5902 5902 5902 5905 5906 5903 5906 5910 5910 5912 5913 5914 5916 5916 5917 5921 5917 5915 5922 5924 5924 5925 5925 5926 5927 5928 5928 5929 5932 5933 5931 5931 5933 5935 5935 5934 5935 5935 5936 5936 5936 5936 5936 5936 5936 5936 5936 5936 5936 5935 5934 5934 5935 5936 5936 5936 5936 5935 5934 5930 5927 5925 5923 5918 5915 5915 5917 5918 5917 5916 5915
5872 5874 5876 5877 5879 5880 5881 5883 5884 5886 5886 5888 5890 5892 5894 5896 5897 5898 5899 5900 5904 5904 5901 5904 5908 5908 5910 5912 5912 5914 5914 5915 5917 5915 5916 5920 5921 5921 5923 5923 5924 5926 5926 5927 5928 5930 5931 5929 5929 5931 5933 5933 5933 5933 5933 5934 5934 5935 5935 5935 5935 5935 5935 5935 5935 5935 5933 5933 5933 5934 5935 5936 5935 5935 5934 5932 5929 5927 5926 5921 5916 5916 5914 5914 5916 5916 5915 5915
5870 5871 5873 5875 5876 5878 5879 5880 5881 5882 5884 5886 5887 5889 5892 5893 5893 5895 5898 5899 5903 5904 5902 5904 5906 5904 5907 5910 5911 5911 5911 5913 5914 5914 5916 5918 5918 5919 5920 5922 5923 5923 5925 5926 5927 5928 5928 5928 5929 5930 5930 5930 5931 5931 5931 5932 5933 5933 5933 5934 5933 5933 5934 5934 5935 5935 5934 5933 5934 5934 5935 5936 5934 5933 5931 5930 5927 5924 5922 5918 5916 5916 5911 5909 5913 5914 5913 5914
5867 5869 5870 5872 5873 5875 5876 5878 5878 5880 5882 5883 5885 5887 5888 5889 5891 5894 5897 5899 5902 5903 5902 5904 5905 5903 5905 5908 5910 5910 5909 5911 5912 5912 5914 5915 5916 5916 5918 5920 5921 5921 5923 5925 5926 5927 5928 5928 5928 5929 5928 5926 5926 5929 5930 5930 5931 5931 5932 5932 5932 5933 5934 5934 5935 5936 5935 5936 5937 5936 5936 5934 5932 5931 5930 5928 5924 5919 5918 5918 5918 5918 5913 5909 5912 5914 5912 5912
5864 5866 5868 5869 5871 5872 5874 5875 5876 5878 5880 5881 5883 5884 5885 5887 5890 5894 5896 5898 5901 5901 5900 5903 5905 5903 5903 5906 5909 5910 5909 5910 5910 5910 5912 5913 5914 5915 5915 5918 5919 5919 5921 5923 5924 5925 5928 5930 5929 5928 5928 5924 5922 5924 5927 5929 5930 5931 5932 5931 5931 5932 5932 5933 5934 5934 5934 5935 5935 5935 5934 5932 5931 5930 5927 5923 5919 5916 5918 5920 5919 5918 5917 5913 5912 5912 5911 5911
5861 5863 5865 5867 5868 5870 5871 5872 5874 5875 5877 5879 5880 5881 5883 5887 5890 5893 5894 5895 5898 5898 5898 5902 5903 5902 5903 5904 5907 5909 5909 5911 5909 5908 5910 5911 5912 5913 5914 5916 5917 5917 5919 5921 5923 5924 5925 5928 5928 5927 5927 5924 5923 5922 5923 5927 5929 5930 5931 5931 5931 5931 5930 5930 5930 5931 5931 5931 5931 5932 5932 5932 5932 5929 5923 5919 5916 5916 5919 5921 5919 5918 5917 5915 5913 5911 5911 5912
5859 5860 5862 5864 5866 5867 5869 5870 5871 5872 5874 5876 5877 5879 5883 5886 5888 5890 5893 5895 5896 5897 5899 5900 5899 5901 5903 5904 5906 5907 5908 5911 5909 5907 5909 5910 5910 5912 5913 5914 5915 5916 5917 5918 5921 5923 5924 5927 5927 5926 5924 5923 5923 5922 5921 5923 5927 5927 5928 5929 5930 5930 5929 5929 5929 5929 5930 5930 5930 5931 5931 5932 5932 5929 5922 5918 5915 5916 5919 5920 5918 5917 5915 5914 5913 5912 5912 5912
5856 5857 5859 5861 5863 5864 5866 5868 5869 5870 5871 5873 5874 5878 5882 5884 5885 5888 5890 5890 5891 5893 5898 5900 5898 5899 5901 5903 5906 5906 5907 5909 5908 5906 5909 5909 5909 5911 5912 5913 5915 5915 5915 5916 5919 5921 5922 5924 5925 5924 5924 5921 5919 5920 5921 5921 5923 5924 5925 5928 5929 5928 5928 5928 5928 5928 5928 5929 5930 5931 5931 5931 5931 5926 5920 5916 5914 5916 5918 5918 5916 5916 5914 5912 5910 5910 5911 5911
5853 5854 5856 5858 5860 5861 5863 5865 5866 5867 5868 5870 5873 5877 5879 5881 5883 5884 5884 5884 5886 5890 5893 5898 5899 5899 5901 5904 5907 5907 5906 5907 5908 5907 5909 5910 5910 5910 5911 5912 5914 5915 5915 5914 5916 5918 5918 5921 5923 5922 5923 5922 5917 5918 5920 5919 5919 5921 5923 5924 5925 5926 5927 5926 5926 5927 5927 5928 5928 5929 5930 5929 5928 5923 5915 5912 5914 5916 5917 5916 5916 5915 5913 5912 5910 5909 5909 5910
5849 5850 5852 5854 5856 5858 5860 5862 5863 5864 5866 5868 5872 5875 5877 5878 5880 5881 5881 5881 5884 5888 5889 5894 5898 5898 5899 5902 5907 5910 5907 5905 5907 5908 5909 5910 5910 5910 5911 5911 5912 5913 5913 5912 5913 5915 5915 5916 5920 5921 5921 5921 5919 5917 5917 5917 5918 5919 5920 5921 5921 5923 5925 5925 5926 5926 5927 5927 5927 5928 5928 5924 5923 5919 5914 5912 5915 5916 5916 5916 5915 5914 5913 5911 5910 5909 5909 5908
5845 5847 5849 5851 5853 5855 5857 5858 5860 5861 5864 5868 5871 5872 5873 5875 5877 5878 5877 5877 5882 5886 5887 5892 5895 5894 5897 5899 5903 5909 5908 5905 5907 5908 5909 5910 5909 5909 5910 5909 5911 5912 5910 5910 5911 5913 5913 5913 5918 5921 5920 5919 5919 5917 5916 5916 5917 5918 5919 5919 5920 5921 5922 5923 5924 5924 5925 5926 5926 5927 5924 5918 5917 5918 5916 5915 5916 5915 5915 5915 5913 5912 5911 5910 5909 5908 5908 5907
5841 5842 5845 5847 5848 5851 5853 5854 5857 5859 5862 5865 5867 5869 5870 5871 5873 5874 5874 5875 5881 5884 5884 5887 5889 5889 5893 5896 5898 5902 5903 5903 5904 5907 5910 5911 5909 5911 5909 5906 5910 5912 5909 5909 5909 5910 5912 5913 5915 5918 5919 5920 5919 5917 5915 5916 5918 5920 5920 5919 5918 5920 5921 5922 5922 5923 5923 5923 5924 5925 5920 5914 5915 5917 5916 5915 5914 5914 5914 5913 5911 5910 5909 5908 5908 5907 5906 5906
5837 5837 5841 5844 5845 5848 5849 5851 5854 5856 5859 5862 5864 5866 5866 5867 5869 5871 5872 5874 5878 5880 5881 5883 5886 5886 5889 5893 5896 5900 5900 5901 5903 5906 5910 5911 5910 5911 5908 5904 5906 5909 5907 5908 5909 5909 5909 5911 5913 5914 5916 5919 5920 5917 5914 5915 5917 5918 5920 5920 5918 5918 5920 5921 5923 5924 5923 5924 5926 5925 5917 5912 5913 5915 5914 5913 5912 5912 5911 5910 5909 5907 5906 5906 5905 5905 5904 5903
5832 5834 5839 5841 5841 5844 5845 5847 5850 5853 5856 5860 5860 5861 5862 5864 5867 5868 5870 5873 5875 5877 5878 5881 5884 5885 5887 5890 5893 5895 5895 5897 5901 5903 5906 5909 5909 5907 5904 5902 5904 5906 5907 5908 5909 5908 5908 5909 5910 5912 5913 5915 5917 5916 5914 5914 5915 5915 5916 5918 5918 5919 5919 5920 5921 5923 5922 5923 5925 5923 5915 5910 5910 5910 5909 5910 5910 5909 5909 5907 5906 5905 5904 5904 5903 5902 5902 5901
5829 5832 5836 5837 5837 5839 5842 5844 5847 5850 5853 5855 5855 5857 5860 5862 5864 5865 5867 5870 5872 5873 5875 5878 5881 5882 5884 5887 5888 5889 5890 5893 5897 5900 5902 5906 5907 5905 5901 5900 5902 5905 5907 5908 5908 5907 5907 5908 5909 5910 5911 5913 5915 5917 5916 5914 5914 5914 5915 5916 5916 5918 5919 5920 5920 5921 5921 5920 5920 5919 5912 5906 5906 5905 5905 5907 5907 5906 5905 5904 5903 5903 5902 5901 5900 5900 5899 5898
5825 5828 5831 5832 5832 5835 5838 5841 5842 5844 5847 5849 5851 5854 5856 5858 5860 5863 5865 5868 5869 5870 5872 5875 5877 5879 5881 5883 5885 5886 5887 5890 5893 5897 5900 5903 5905 5903 5899 5897 5900 5903 5903 5904 5903 5903 5905 5907 5907 5908 5911 5914 5916 5916 5916 5915 5915 5914 5914 5915 5915 5915 5917 5919 5919 5920 5920 5919 5917 5915 5909 5904 5904 5904 5905 5906 5905 5904 5903 5902 5901 5901 5900 5899 5898 5897 5896 5895
5821 5823 5827 5829 5829 5831 5834 5836 5837 5840 5843 5847 5849 5850 5853 5855 5857 5860 5863 5864 5865 5867 5869 5871 5874 5876 5878 5879 5882 5884 5885 5887 5891 5894 5896 5898 5902 5903 5898 5894 5898 5900 5900 5901 5901 5900 5903 5905 5905 5906 5908 5911 5913 5914 5913 5914 5916 5916 5916 5917 5917 5917 5917 5916 5917 5918 5919 5918 5915 5912 5907 5903 5903 5904 5905 5905 5905 5903 5902 5900 5899 5898 5897 5896 5895 5894 5893 5893
5817 5818 5821 5823 5824 5826 5829 5832 5834 5837 5840 5843 5845 5846 5849 5852 5854 5857 5859 5861 5862 5864 5866 5869 5870 5872 5875 5876 5879 5880 5882 5886 5888 5891 5893 5894 5897 5899 5895 5892 5896 5897 5898 5900 5900 5900 5901 5902 5903 5906 5907 5908 5910 5913 5913 5913 5914 5916 5917 5917 5917 5917 5915 5914 5915 5916 5917 5917 5913 5907 5903 5901 5900 5901 5903 5903 5902 5901 5899 5898 5896 5895 5893 5893 5892 5891 5891 5890
5812 5813 5815 5818 5820 5823 5826 5828 5830 5832 5835 5837 5839 5841 5845 5848 5850 5853 5855 5858 5860 5861 5863 5865 5867 5870 5872 5874 5876 5877 5880 5884 5885 5887 5891 5891 5892 5894 5893 5894 5895 5895 5896 5898 5898 5899 5900 5900 5902 5904 5907 5908 5909 5911 5914 5914 5914 5914 5915 5915 5916 5915 5914 5914 5915 5915 5915 5915 5909 5901 5899 5900 5899 5899 5901 5901 5900 5898 5896 5895 5893 5892 5890 5889 5889 5888 5888 5887
5806 5807 5808 5812 5816 5820 5822 5823 5825 5828 5831 5833 5836 5838 5841 5845 5848 5850 5852 5855 5856 5857 5859 5862 5864 5867 5869 5871 5872 5875 5878 5881 5883 5885 5888 5890 5892 5892 5892 5894 5896 5894 5894 5896 5897 5898 5899 5899 5900 5902 5905 5907 5907 5910 5914 5915 5913 5914 5914 5913 5913 5914 5914 5914 5914 5914 5914 5911 5902 5896 5898 5899 5898 5898 5899 5898 5897 5896 5894 5892 5890 5889 5888 5886 5885 5885 5884 5883
5800 5801 5804 5809 5813 5816 5818 5819 5822 5825 5828 5830 5833 5835 5838 5842 5844 5846 5848 5850 5852 5854 5856 5858 5861 5864 5866 5867 5869 5871 5875 5878 5880 5883 5886 5888 5889 5888 5888 5893 5895 5893 5893 5894 5896 5896 5897 5898 5900 5900 5902 5905 5906 5909 5913 5912 5911 5912 5912 5912 5912 5912 5912 5911 5912 5911 5909 5904 5896 5894 5896 5896 5896 5898 5897 5895 5894 5893 5891 5890 5888 5886 5884 5881 5879 5878 5879 5880
5794 5797 5801 5804 5807 5809 5811 5814 5817 5820 5822 5824 5827 5830 5834 5837 5840 5842 5844 5845 5848 5850 5852 5855 5858 5860 5862 5863 5864 5867 5871 5873 5875 5879 5880 5880 5882 5883 5885 5889 5889 5889 5890 5893 5894 5896 5896 5897 5898 5899 5901 5904 5907 5909 5911 5910 5909 5909 5911 5912 5910 5909 5908 5907 5907 5907 5904 5899 5894 5894 5896 5896 5895 5895 5894 5893 5892 5890 5889 5887 5886 5884 5881 5878 5876 5875 5876 5878
5790 5793 5795 5798 5800 5803 5806 5809 5811 5814 5817 5819 5821 5825 5829 5832 5835 5838 5839 5841 5844 5846 5849 5851 5854 5856 5857 5858 5860 5864 5868 5869 5872 5875 5873 5872 5875 5877 5880 5882 5884 5886 5889 5889 5891 5894 5895 5896 5897 5898 5899 5902 5906 5909 5909 5908 5908 5908 5909 5908 5906 5905 5904 5903 5904 5903 5899 5895 5894 5894 5895 5895 5894 5892 5891 5891 5889 5887 5886 5885 5884 5882 5880 5879 5878 5877 5876 5876